[[{"header":{"parameterUnit":"m.s-1","parameterCategory":1,"la1":30.2991,"la2":30.254,"lo1":-89.0895,"lo2":-89.0444,"dy":0.0017,"dx":0.0017,"nx":28,"ny":28,"refTime":"2024-07-23T21:00:00:Z","depth":0,"parameterNumber":2,"parameterNumberName":"U-component_of_WINDS"},"data":[0,0,0,0,0,0,0,0,0,0,0,0,0,0,0,0,0,0,0,0,0,0,0,0,0,0,0,0,0,0,0,0,0,0,0,0,0,0,0,0,0,0,0,0,0,0,0,0,0,0,0,0,0,0,0,0,0,0,-0.9257,-0.9257,0,-0.9276,-0.9276,-0.9276,-0.9233,-0.9232,-0.923,-0.9229,-0.9251,-0.9252,-0.9254,0,0,0,0,0,0,0,0,0,0,0,0,0,-0.9184,-0.9185,-0.9257,-0.9257,-0.9257,-0.9276,-0.9276,-0.9276,-0.9233,-0.9232,-0.923,-0.9229,-0.925,-0.9252,-0.9254,0,0,0,0,0,0,0,0,0,0,0,0,0,-0.921,-0.9186,-0.9256,-0.9238,-0.9236,-0.9276,-0.9276,-0.9276,-0.9234,-0.9232,-0.923,-0.9228,-0.9249,-0.9252,-0.9255,-0.9313,0,0,-0.9263,-0.9264,0,0,0,0,0,0,0,0,-0.9209,-0.9213,-0.924,-0.9239,-0.9238,-0.925,-0.9258,-0.9289,-0.9234,-0.9235,-0.9229,-0.9227,-0.9252,-0.9254,-0.9263,-0.9314,-0.9315,-0.9263,-0.9265,-0.9266,-0.9267,0,0,0,0,0,0,0,-0.9207,-0.9212,-0.9264,-0.9241,-0.9239,-0.9229,-0.923,-0.9264,-0.9255,-0.9235,-0.9232,-0.9234,-0.9251,-0.926,-0.9263,-0.9315,-0.9263,-0.9266,-0.9267,-0.9269,-0.9415,-0.9417,0,0,0,0,0,0,-0.9208,-0.9211,-0.9263,-0.9265,-0.9218,-0.9232,-0.9233,-0.9248,-0.9254,-0.9253,-0.9236,-0.9232,-0.9256,-0.926,-0.9263,-0.9332,-0.9266,-0.9269,-0.927,-0.9413,-0.9415,-0.9418,0,0,0,0,0,0,-0.9206,-0.9213,-0.9263,-0.9237,-0.9242,-0.9235,-0.9252,-0.925,-0.9259,-0.9255,-0.9254,-0.9247,-0.9255,-0.926,-0.9301,-0.9332,-0.927,-0.9273,-0.941,-0.9413,-0.9417,-0.9471,0,0,0,0,0,0,-0.9204,-0.9212,-0.9235,-0.9238,-0.9244,-0.93,-0.9254,-0.9251,-0.9263,-0.9259,-0.9265,-0.9264,-0.9254,-0.9297,-0.9304,-0.9335,-0.9275,-0.9407,-0.9412,-0.9416,-0.9466,-0.9475,-0.9483,0,0,0,0,0,-0.9202,-0.925,-0.9236,-0.9243,-0.9272,-0.9302,-0.9305,-0.9292,-0.9266,-0.9288,-0.9286,-0.9264,-0.9327,-0.9301,-0.9309,-0.9342,-0.9405,-0.941,-0.9415,-0.9462,-0.9474,-0.9483,0,0,0,0,0,0,-0.9252,-0.925,-0.9235,-0.9285,-0.9294,-0.9294,-0.9322,-0.9304,-0.9321,-0.9316,-0.9298,-0.93,-0.9345,-0.9347,-0.9318,-0.9398,-0.9362,-0.9369,-0.9395,-0.9406,-0.9415,-0.9414,-0.9277,0,0,0,0,0,-0.9268,-0.9292,-0.929,-0.9334,-0.9339,-0.933,-0.9343,-0.9331,-0.934,-0.9343,-0.9344,-0.9354,-0.9376,-0.9391,-0.9411,-0.9465,-0.9466,-0.9491,-0.95,-0.9507,-0.9514,-0.9542,-0.9554,-0.9434,-0.9434,-0.9434,0,0,-0.9303,-0.9305,-0.9322,-0.9344,-0.935,-0.9375,-0.9334,-0.9363,-0.9382,-0.9348,-0.9387,-0.9388,-0.9397,-0.9445,-0.9467,-0.9449,-0.9546,-0.9514,-0.9519,-0.9522,-0.9549,-0.956,-0.957,-0.9438,-0.9437,-0.9436,0,0,-0.938,-0.9384,-0.9421,-0.9427,-0.9436,-0.9429,-0.9438,-0.9441,-0.944,-0.9478,-0.9453,-0.9476,-0.9514,-0.9522,-0.9531,-0.9609,-0.9589,-0.9615,-0.9662,-0.969,-0.9699,-0.9708,-0.9736,-0.9746,-0.9622,-0.9622,-0.9622,0,-0.9423,-0.9461,-0.9443,-0.9474,-0.9484,-0.9453,-0.9491,-0.9498,-0.9513,-0.9521,-0.95,-0.9547,-0.9551,-0.96,-0.9619,-0.9627,-0.9637,-0.9616,-0.9699,-0.9707,-0.9715,-0.9742,-0.9752,-0.9625,-0.9625,-0.9624,-0.9624,0,-0.9513,-0.9539,-0.9568,-0.9583,-0.9596,-0.963,-0.9618,-0.9634,-0.962,-0.9616,-0.9655,-0.9659,-0.9679,-0.9689,-0.9677,-0.9737,-0.9725,-0.9702,-0.9666,-0.973,-0.9755,-0.9765,-0.963,-0.9628,-0.9627,-0.9627,0,0,-0.9624,-0.9627,-0.9638,-0.9644,-0.965,-0.967,-0.9702,-0.9721,-0.9735,-0.9745,-0.9772,-0.9804,-0.9783,-0.9793,-0.9781,-0.9805,-0.9867,-0.9779,-0.9779,-0.9796,-0.9934,-0.9952,-0.9964,-0.9853,-0.9855,-0.9857,-0.9933,0,-0.9701,-0.9756,-0.9741,-0.9796,-0.982,-0.979,-0.9818,-0.9825,-0.9821,-0.9841,-0.9836,-0.986,-0.9829,-0.9835,-0.9858,-0.9855,-0.9895,-0.9849,-0.9879,-0.988,-0.9879,-0.9977,-0.9997,-1.0069,-0.9943,-0.9944,-0.9945,0,-0.9799,-0.9812,-0.987,-0.9871,-0.988,-0.9906,-0.9921,-0.9941,-0.9947,-0.9943,-0.9953,-0.9936,-0.9967,-0.9929,-0.9973,-0.9942,-0.9953,-0.9953,-0.9956,-0.9959,-0.9918,-0.9984,-1.0091,-1.0102,-0.996,-0.9959,-0.9958,0,-0.9875,-0.9907,-0.9946,-0.9952,-0.9954,-0.9972,-0.9974,-0.9979,-0.9991,-1.0004,-1.0011,-1.0028,-1.0038,-1.0052,-1.0039,-1.0013,-1.0085,-1.0046,-1.0082,-1.0083,-1.0101,-1.01,-1.0212,-1.0106,-1.0105,-1.0105,-1.0105,0,-0.9963,-1.0,-0.998,-1.0004,-1.0044,-1.0025,-1.0065,-1.0064,-1.0068,-1.0091,-1.0065,-1.0088,-1.0069,-1.009,-1.008,-1.0118,-1.0122,-1.0119,-1.0117,-1.0123,-1.0123,-1.0131,-1.0126,-1.0108,-1.0107,-1.0107,-1.0106,0,-1.0056,-1.0044,-1.0084,-1.0082,-1.0082,-1.0112,-1.0111,-1.0133,-1.0126,-1.0155,-1.0161,-1.0151,-1.0174,-1.0162,-1.0186,-1.0179,-1.0228,-1.0218,-1.0226,-1.0224,-1.0261,-1.0258,-1.0383,-1.0399,-1.0282,-1.0283,-1.0284,0,-1.0114,-1.0141,-1.0142,-1.0155,-1.0158,-1.018,-1.0192,-1.0173,-1.0187,-1.0195,-1.0217,-1.0237,-1.0252,-1.029,-1.0285,-1.0303,-1.0294,-1.0336,-1.0297,-1.0301,-1.0296,-1.0295,-1.0297,-1.0345,-1.0346,-1.0347,-1.0348,0,-1.0218,-1.0211,-1.0228,-1.0243,-1.0257,-1.0269,-1.0278,-1.029,-1.0272,-1.0288,-1.0311,-1.0322,-1.0346,-1.0367,-1.0382,-1.0384,-1.0364,-1.036,-1.037,-1.0377,-1.0381,-1.038,-1.0249,-1.0358,-1.0357,-1.0357,-1.0356,-1.0356,-1.0296,-1.0319,-1.0322,-1.0342,-1.0347,-1.0356,-1.0376,-1.0371,-1.039,-1.0407,-1.0395,-1.0421,-1.0426,-1.0444,-1.0449,-1.0469,-1.0452,-1.0466,-1.047,-1.0474,-1.0479,-1.0376,-1.0472,-1.0472,-1.0471,-1.0471,-1.0471,0,-1.04,-1.04,-1.0419,-1.0432,-1.0447,-1.0425,-1.0433,-1.0448,-1.0472,-1.0478,-1.0493,-1.0518,-1.0538,-1.0534,-1.0551,-1.0569,-1.056,-1.0574,-1.0573,-1.0574,-1.0493,-1.0483,-1.0581,-1.0581,-1.0581,-1.0581,-1.0581,-1.0581,-1.0456,-1.0493,-1.0486,-1.0525,-1.0524,-1.055,-1.0557,-1.0564,-1.0569,-1.0598,-1.0614,-1.0611,-1.0612,-1.063,-1.0646,-1.0645,-1.0653,-1.0671,-1.0666,-1.0591,-1.058,-1.057,-1.056,-1.0672,-1.0672,-1.0745,-1.0746,-1.0746]},{"header":{"parameterUnit":"m.s-1","parameterCategory":1,"la1":30.2991,"la2":30.254,"lo1":-89.0895,"lo2":-89.0444,"dy":0.0017,"dx":0.0017,"nx":28,"ny":28,"refTime":"2024-07-23T21:00:00:Z","depth":0,"parameterNumber":3,"parameterNumberName":"V-component_of_WINDS"},"data":[0,0,0,0,0,0,0,0,0,0,0,0,0,0,0,0,0,0,0,0,0,0,0,0,0,0,0,0,0,0,0,0,0,0,0,0,0,0,0,0,0,0,0,0,0,0,0,0,0,0,0,0,0,0,0,0,0,0,-1.8333,-1.8334,0,-1.8413,-1.8414,-1.8415,-1.8393,-1.8392,-1.839,-1.8389,-1.8471,-1.8475,-1.8478,0,0,0,0,0,0,0,0,0,0,0,0,0,-1.8163,-1.8166,-1.8333,-1.8334,-1.8335,-1.8413,-1.8414,-1.8415,-1.8394,-1.8392,-1.839,-1.8388,-1.847,-1.8474,-1.8479,0,0,0,0,0,0,0,0,0,0,0,0,0,-1.8239,-1.8167,-1.8333,-1.8334,-1.8335,-1.8413,-1.8414,-1.8415,-1.8394,-1.8392,-1.8389,-1.8387,-1.8468,-1.8474,-1.8479,-1.8561,0,0,-1.8496,-1.8499,0,0,0,0,0,0,0,0,-1.8235,-1.8245,-1.8333,-1.8334,-1.8335,-1.8391,-1.8384,-1.8464,-1.8395,-1.8372,-1.8389,-1.8386,-1.8446,-1.8454,-1.8474,-1.8565,-1.8569,-1.8497,-1.85,-1.8502,-1.8504,0,0,0,0,0,0,0,-1.8229,-1.8242,-1.8365,-1.8334,-1.8335,-1.833,-1.8339,-1.8399,-1.8421,-1.8373,-1.8372,-1.8382,-1.8447,-1.8469,-1.8476,-1.857,-1.8496,-1.8501,-1.8505,-1.8507,-1.8733,-1.8735,0,0,0,0,0,0,-1.8223,-1.8237,-1.8362,-1.8367,-1.8278,-1.8335,-1.8344,-1.8375,-1.8421,-1.8425,-1.8384,-1.838,-1.846,-1.8469,-1.8478,-1.8578,-1.8502,-1.8508,-1.8511,-1.873,-1.8733,-1.8736,0,0,0,0,0,0,-1.822,-1.8234,-1.8359,-1.8302,-1.8317,-1.8341,-1.8376,-1.8378,-1.84,-1.8428,-1.8432,-1.8402,-1.8459,-1.8471,-1.8541,-1.858,-1.851,-1.8515,-1.8727,-1.8731,-1.8735,-1.8776,0,0,0,0,0,0,-1.8215,-1.8233,-1.8265,-1.8303,-1.832,-1.842,-1.8378,-1.8381,-1.841,-1.8406,-1.8447,-1.8451,-1.8458,-1.8533,-1.8546,-1.8586,-1.8519,-1.8723,-1.8729,-1.8733,-1.8772,-1.8781,-1.879,0,0,0,0,0,-1.8209,-1.8273,-1.8266,-1.8281,-1.836,-1.8422,-1.8432,-1.8438,-1.8413,-1.8445,-1.8463,-1.845,-1.8574,-1.854,-1.8555,-1.8598,-1.8721,-1.8727,-1.8733,-1.8768,-1.8779,-1.8789,0,0,0,0,0,0,-1.8239,-1.8278,-1.8271,-1.835,-1.8383,-1.8419,-1.8459,-1.8451,-1.8492,-1.8487,-1.8493,-1.8502,-1.8574,-1.8593,-1.8555,-1.8679,-1.8644,-1.8653,-1.8665,-1.8676,-1.8685,-1.8679,-1.8524,0,0,0,0,0,-1.8255,-1.8302,-1.8334,-1.84,-1.8417,-1.8435,-1.8463,-1.8464,-1.8499,-1.8513,-1.8536,-1.857,-1.8617,-1.8647,-1.8692,-1.8774,-1.8783,-1.8811,-1.882,-1.8827,-1.8835,-1.888,-1.8893,-1.8756,-1.8756,-1.8756,0,0,-1.8289,-1.8316,-1.8345,-1.8407,-1.8433,-1.8482,-1.8447,-1.85,-1.8537,-1.8521,-1.8589,-1.8607,-1.8646,-1.8722,-1.8757,-1.874,-1.8875,-1.8835,-1.884,-1.8844,-1.8888,-1.8901,-1.8912,-1.876,-1.8759,-1.8759,0,0,-1.8375,-1.84,-1.8458,-1.8484,-1.8524,-1.8535,-1.8549,-1.8586,-1.8598,-1.8666,-1.8655,-1.8698,-1.8778,-1.8806,-1.8831,-1.8927,-1.8917,-1.8942,-1.8989,-1.9033,-1.9043,-1.9053,-1.9088,-1.91,-1.895,-1.895,-1.895,0,-1.8411,-1.8484,-1.8489,-1.8543,-1.8571,-1.8558,-1.8617,-1.8643,-1.8695,-1.8715,-1.8694,-1.8795,-1.882,-1.8903,-1.8926,-1.8947,-1.8963,-1.8937,-1.9041,-1.9051,-1.906,-1.9093,-1.9106,-1.8952,-1.8952,-1.8952,-1.8952,0,-1.8527,-1.8578,-1.862,-1.867,-1.8703,-1.8759,-1.8773,-1.8805,-1.8804,-1.8817,-1.8887,-1.8916,-1.8967,-1.8986,-1.8986,-1.907,-1.9058,-1.904,-1.9004,-1.9076,-1.9107,-1.912,-1.8956,-1.8955,-1.8955,-1.8954,0,0,-1.8635,-1.8687,-1.8702,-1.8725,-1.8768,-1.8807,-1.8863,-1.8912,-1.8939,-1.8975,-1.9022,-1.909,-1.9074,-1.9102,-1.9104,-1.9143,-1.9217,-1.912,-1.9121,-1.9137,-1.9311,-1.9325,-1.934,-1.9211,-1.9213,-1.9215,-1.9308,0,-1.8724,-1.8822,-1.8828,-1.8917,-1.8964,-1.8953,-1.9002,-1.9033,-1.9047,-1.9089,-1.9105,-1.9153,-1.9128,-1.9145,-1.9182,-1.92,-1.9252,-1.9194,-1.9255,-1.9257,-1.9246,-1.9356,-1.937,-1.9457,-1.932,-1.9323,-1.9324,0,-1.8842,-1.8882,-1.8975,-1.9011,-1.9031,-1.9074,-1.912,-1.916,-1.9195,-1.9203,-1.9234,-1.9232,-1.9289,-1.9251,-1.933,-1.929,-1.9315,-1.9328,-1.9332,-1.9338,-1.9295,-1.9365,-1.9485,-1.9498,-1.9343,-1.9342,-1.934,0,-1.8911,-1.8988,-1.9054,-1.9074,-1.9117,-1.9148,-1.9167,-1.9201,-1.923,-1.9269,-1.9288,-1.9334,-1.9359,-1.9395,-1.9405,-1.9376,-1.9484,-1.9447,-1.9492,-1.9492,-1.9515,-1.9514,-1.9641,-1.9531,-1.9531,-1.9531,-1.9531,0,-1.9011,-1.9069,-1.9086,-1.9126,-1.919,-1.9197,-1.926,-1.9278,-1.9307,-1.9351,-1.9345,-1.9386,-1.9396,-1.944,-1.9448,-1.9512,-1.9524,-1.9532,-1.9533,-1.9532,-1.9532,-1.9549,-1.9544,-1.9534,-1.9534,-1.9533,-1.9532,0,-1.9099,-1.9113,-1.9184,-1.9219,-1.9229,-1.9275,-1.9305,-1.9344,-1.9358,-1.9413,-1.9427,-1.9448,-1.9499,-1.9512,-1.9572,-1.9578,-1.9654,-1.965,-1.9642,-1.9642,-1.9687,-1.9683,-1.983,-1.985,-1.9727,-1.9728,-1.9729,0,-1.9162,-1.9206,-1.9246,-1.9275,-1.9295,-1.9342,-1.9371,-1.9379,-1.941,-1.9454,-1.9488,-1.9538,-1.9578,-1.966,-1.9681,-1.9727,-1.9724,-1.9773,-1.9731,-1.9729,-1.9725,-1.9723,-1.9727,-1.9781,-1.9782,-1.9783,-1.9784,0,-1.9272,-1.9276,-1.9319,-1.9364,-1.9399,-1.9435,-1.947,-1.9494,-1.9507,-1.9542,-1.9594,-1.9625,-1.9687,-1.9737,-1.9784,-1.9804,-1.9797,-1.9797,-1.981,-1.981,-1.9804,-1.9808,-1.9664,-1.9793,-1.9792,-1.9792,-1.9791,-1.9791,-1.9349,-1.9388,-1.9422,-1.947,-1.9496,-1.9529,-1.9567,-1.9585,-1.9628,-1.9679,-1.9681,-1.9738,-1.9772,-1.9834,-1.9857,-1.9902,-1.9887,-1.9906,-1.9911,-1.9915,-1.9919,-1.9796,-1.991,-1.991,-1.991,-1.991,-1.9909,0,-1.9459,-1.948,-1.9524,-1.9572,-1.961,-1.9599,-1.9637,-1.9669,-1.9719,-1.9751,-1.9791,-1.9851,-1.9899,-1.9924,-1.9972,-2.0002,-2.0,-2.0015,-2.0013,-2.0018,-1.993,-1.9914,-2.0016,-2.0016,-2.0016,-2.0016,-2.0016,-2.0016,-1.952,-1.9585,-1.9594,-1.9672,-1.9693,-1.9748,-1.977,-1.98,-1.9826,-1.9893,-1.9933,-1.9949,-1.9978,-2.0028,-2.0072,-2.0078,-2.0096,-2.0113,-2.0117,-2.0035,-2.0024,-2.0013,-1.9998,-2.0117,-2.0117,-2.0202,-2.0202,-2.0203]}]]